User: anonymous   Login
Location: Pensacola
(30.4142°N, 87.2155°W)
Time: 13:57:28
(UTC-06:00)
Language:

SPACEBEE-101 - Orbit

View from above orbital plane
View from above orbital plane
View from above satellite
View from above satellite

Ground track
Ground track

The orbit data is extracted from the following two-line orbital elements,

1 48884U 21059F   24057.98493951  .00325111  00000-0  19712-2 0  9990
2 48884  97.6041 211.8390 0006017 294.6351  65.4287 15.76615940148738
Epoch (UTC): 26 February 2024 23:38:18
Eccentricity: 0.0006017
inclination: 97.6041°
perigee height: 336 km
apogee height: 344 km
right ascension of ascending node: 211.8390°
argument of perigee: 294.6351°
revolutions per day: 15.76615940
mean anomaly at epoch: 65.4287°
orbit number at epoch: 14873

The dashed part of the orbit path shows where the satellite is in the earth's shadow,  

DLR